GW2922 Weather Reports


time (UTC)temp
C
wind
direction
speed
KPH
gust
KPH
rain 1hr
cm
rain 24hr
cm
rain mn
cm
humidity
%
barometer
mb
20260503234856 25 115 3.2 6.4 0.00 0.00 0.00 34 1013.5
20260503234354 26 150 1.6 6.4 0.00 0.00 0.00 33 1013.8
20260503233851 25 109 3.2 4.8 0.00 0.00 0.00 33 1013.8
20260503233347 26 76 4.8 9.7 0.00 0.00 0.00 32 1013.8
20260503232844 26 20 1.6 4.8 0.00 0.00 0.00 33 1013.8
20260503232341 26 322 3.2 3.2 0.00 0.00 0.00 31 1014.1
20260503231839 26 188 1.6 3.2 0.00 0.00 0.00 32 1014.1
20260503231335 25 113 0.0 3.2 0.00 0.00 0.00 32 1014.1
20260503230826 25 350 4.8 9.7 0.00 0.00 0.00 34 1014.1
20260503230323 25 191 4.8 9.7 0.00 0.00 0.00 34 1014.1
20260503225821 25 103 6.4 11.3 0.00 0.00 0.00 34 1014.1
20260503225316 26 135 3.2 6.4 0.00 0.00 0.00 34 1014.1
20260503224813 25 123 0.0 3.2 0.00 0.00 0.00 34 1014.5
20260503224310 25 190 1.6 4.8 0.00 0.00 0.00 34 1014.5
20260503223808 25 39 3.2 4.8 0.00 0.00 0.00 34 1014.5
20260503223305 25 319 3.2 6.4 0.00 0.00 0.00 35 1014.5
20260503222801 25 176 3.2 4.8 0.00 0.00 0.00 35 1014.5
20260503222300 24 323 3.2 9.7 0.00 0.00 0.00 36 1014.8
20260503221757 25 209 3.2 9.7 0.00 0.00 0.00 36 1014.8
20260503221255 25 265 1.6 4.8 0.00 0.00 0.00 36 1014.8
20260503220751 25 246 0.0 6.4 0.00 0.00 0.00 35 1014.8
20260503220248 25 134 3.2 6.4 0.00 0.00 0.00 34 1014.8
20260503215745 25 122 0.0 4.8 0.00 0.00 0.00 33 1015.2
20260503215242 25 38 3.2 4.8 0.00 0.00 0.00 34 1014.8
20260503214740 24 62 3.2 9.7 0.00 0.00 0.00 36 1015.2
20260503214237 25 70 3.2 4.8 0.00 0.00 0.00 36 1015.2
20260503213735 24 129 1.6 6.4 0.00 0.00 0.00 36 1015.2
20260503213232 23 81 1.6 11.3 0.00 0.00 0.00 37 1015.2
20260503212729 23 8 3.2 11.3 0.00 0.00 0.00 37 1015.2
20260503212226 23 21 3.2 14.5 0.00 0.00 0.00 39 1015.2
20260503211724 23 312 3.2 6.4 0.00 0.00 0.00 38 1015.2
20260503211220 23 36 4.8 6.4 0.00 0.00 0.00 39 1015.5
20260503210715 23 65 1.6 6.4 0.00 0.00 0.00 39 1015.5
20260503210213 23 328 3.2 6.4 0.00 0.00 0.00 40 1015.5
20260503205708 24 58 3.2 6.4 0.00 0.00 0.00 38 1015.5
20260503205205 23 16 4.8 12.9 0.00 0.00 0.00 39 1015.5
20260503204701 23 84 1.6 9.7 0.00 0.00 0.00 39 1015.5
20260503204159 23 47 1.6 11.3 0.00 0.00 0.00 37 1015.5
20260503203656 23 33 6.4 11.3 0.00 0.00 0.00 37 1015.2
20260503203154 24 142 1.6 6.4 0.00 0.00 0.00 36 1015.5
20260503202650 23 129 0.0 4.8 0.00 0.00 0.00 36 1015.5
20260503202148 22 194 8.0 11.3 0.00 0.00 0.00 38 1015.5
20260503201646 22 62 6.4 11.3 0.00 0.00 0.00 37 1015.2
20260503201143 23 7 4.8 6.4 0.00 0.00 0.00 37 1015.2
20260503200639 22 86 1.6 9.7 0.00 0.00 0.00 37 1015.5
20260503200136 22 14 3.2 6.4 0.00 0.00 0.00 39 1015.5
20260503195633 22 49 3.2 6.4 0.00 0.00 0.00 40 1015.8
20260503195130 23 354 1.6 4.8 0.00 0.00 0.00 40 1015.8
20260503194627 22 55 1.6 4.8 0.00 0.00 0.00 40 1015.8
20260503194122 22 115 6.4 9.7 0.00 0.00 0.00 42 1015.8
20260503193620 21 60 1.6 6.4 0.00 0.00 0.00 43 1015.8
20260503193115 21 319 6.4 6.4 0.00 0.00 0.00 44 1015.8
20260503192611 21 151 3.2 6.4 0.00 0.00 0.00 44 1015.8
20260503192106 21 30 3.2 6.4 0.00 0.00 0.00 44 1015.8
20260503191604 22 269 4.8 9.7 0.00 0.00 0.00 45 1016.2
20260503191100 22 82 1.6 4.8 0.00 0.00 0.00 45 1016.2
20260503190557 22 45 3.2 9.7 0.00 0.00 0.00 44 1016.2
20260503190054 22 184 1.6 4.8 0.00 0.00 0.00 43 1016.2
20260503185551 21 102 1.6 6.4 0.00 0.00 0.00 45 1015.8
20260503185050 21 61 3.2 6.4 0.00 0.00 0.00 47 1016.2
20260503184546 20 16 6.4 6.4 0.00 0.00 0.00 48 1015.8
20260503184043 20 314 8.0 11.3 0.00 0.00 0.00 47 1016.2
20260503183540 21 318 3.2 9.7 0.00 0.00 0.00 48 1016.2
20260503183037 20 39 3.2 6.4 0.00 0.00 0.00 48 1016.2
20260503182536 21 96 1.6 6.4 0.00 0.00 0.00 46 1016.2
20260503182033 20 78 1.6 4.8 0.00 0.00 0.00 48 1016.5
20260503181530 20 73 3.2 9.7 0.00 0.00 0.00 47 1016.5
20260503181026 21 51 3.2 9.7 0.00 0.00 0.00 46 1016.5
20260503180524 21 51 3.2 9.7 0.00 0.00 0.00 48 1016.5
20260503180021 20 10 3.2 3.2 0.00 0.00 0.00 51 1016.5
20260503175518 19 4 1.6 3.2 0.00 0.00 0.00 54 1016.5
20260503175015 18 321 8.0 11.3 0.00 0.00 0.00 56 1016.5
20260503174513 18 352 3.2 9.7 0.00 0.00 0.00 57 1016.9
20260503174008 18 59 4.8 9.7 0.00 0.00 0.00 58 1016.5
20260503173504 18 251 3.2 6.4 0.00 0.00 0.00 58 1016.9
20260503173000 18 61 3.2 9.7 0.00 0.00 0.00 59 1016.9
20260503172458 18 11 4.8 6.4 0.00 0.00 0.00 59 1016.9
20260503171955 17 95 1.6 6.4 0.00 0.00 0.00 62 1016.9
20260503171451 17 53 1.6 9.7 0.00 0.00 0.00 62 1016.9
20260503170949 17 302 4.8 14.5 0.00 0.00 0.00 62 1016.9
20260503170445 17 307 1.6 9.7 0.00 0.00 0.00 60 1016.9
20260503150837 16 330 4.8 11.3 0.00 0.00 0.00 65 1017.2
20260503150333 16 343 3.2 6.4 0.00 0.00 0.00 65 1017.2
20260503140257 16 39 3.2 6.4 0.00 0.00 0.00 64 1016.9
20260503131227 15 357 1.6 3.2 0.00 0.00 0.00 66 1016.9
20260503130725 15 107 1.6 3.2 0.00 0.00 0.00 66 1016.9
20260503130222 15 108 0.0 3.2 0.00 0.00 0.00 65 1016.9
20260503120148 16 58 0.0 3.2 0.00 0.00 0.00 59 1016.9
20260503110615 16 110 0.0 4.8 0.00 0.00 0.00 56 1016.9
20260503110113 16 87 1.6 1.6 0.00 0.00 0.00 56 1016.9
20260503090501 11 107 0.0 0.0 0.00 0.00 0.00 77 1017.2
20260503081422 12 132 0.0 1.6 0.00 0.00 0.00 75 1016.9
20260503080919 12 147 1.6 1.6 0.00 0.00 0.00 75 1016.9
20260503080410 12 113 0.0 0.0 0.00 0.00 0.00 74 1016.9
20260503072847 13 123 0.0 1.6 0.00 0.00 0.00 71 1016.9
20260503072343 13 154 0.0 1.6 0.00 0.00 0.00 71 1016.9
20260503071840 13 145 0.0 0.0 0.00 0.00 0.00 69 1017.2
20260503071337 13 145 0.0 1.6 0.00 0.00 0.00 67 1016.9
20260503070833 14 145 0.0 1.6 0.00 0.00 0.00 66 1016.9
20260503070332 14 145 0.0 0.0 0.00 0.00 0.00 65 1016.9
20260503060256 17 110 0.0 3.2 0.00 0.00 0.00 48 1016.9
20260503054743 17 190 0.0 1.6 0.00 0.00 0.00 51 1017.2
20260503054240 17 163 1.6 3.2 0.00 0.00 0.00 48 1017.2
20260503053738 17 109 0.0 3.2 0.00 0.00 0.00 48 1016.9
20260503053237 17 55 1.6 1.6 0.00 0.00 0.00 50 1016.9
20260503052732 17 126 0.0 4.8 0.00 0.00 0.00 50 1017.2
20260503052230 17 8 1.6 4.8 0.00 0.00 0.00 50 1017.2
20260503051724 17 65 1.6 1.6 0.00 0.00 0.00 51 1017.2
20260503051222 17 79 1.6 3.2 0.00 0.00 0.00 52 1017.2
20260503050719 17 83 1.6 1.6 0.00 0.00 0.00 51 1017.2
20260503050215 17 75 1.6 1.6 0.00 0.00 0.00 50 1016.9
20260503045713 17 66 1.6 3.2 0.00 0.00 0.00 50 1017.2
20260503045210 18 92 0.0 1.6 0.00 0.00 0.00 50 1016.9
20260503044706 17 81 0.0 9.7 0.00 0.00 0.00 50 1016.9
20260503044204 17 85 1.6 1.6 0.00 0.00 0.00 50 1016.9
20260503043700 17 103 1.6 1.6 0.00 0.00 0.00 50 1016.9
20260503043158 17 99 1.6 4.8 0.00 0.00 0.00 50 1016.9
20260503042654 17 83 1.6 3.2 0.00 0.00 0.00 51 1016.9
20260503042151 18 104 1.6 3.2 0.00 0.00 0.00 50 1016.9
20260503041647 17 340 3.2 3.2 0.00 0.00 0.00 50 1016.9
20260503041145 18 196 0.0 1.6 0.00 0.00 0.00 50 1016.9
20260503040642 18 61 3.2 3.2 0.00 0.00 0.00 51 1017.2
20260503040140 17 95 1.6 3.2 0.00 0.00 0.00 50 1016.9
20260503035636 17 6 1.6 4.8 0.00 0.00 0.00 52 1016.9
20260503035134 17 50 1.6 3.2 0.00 0.00 0.00 52 1016.9
20260503034631 17 78 1.6 3.2 0.00 0.00 0.00 52 1016.5
20260503034128 17 69 3.2 3.2 0.00 0.00 0.00 53 1016.5
20260503033625 18 151 0.0 3.2 0.00 0.00 0.00 53 1016.5
20260503033122 18 212 3.2 3.2 0.00 0.00 0.00 51 1016.5
20260503032621 18 91 0.0 3.2 0.00 0.00 0.00 52 1016.5
20260503032119 18 83 1.6 1.6 0.00 0.00 0.00 52 1016.5
20260503031616 18 92 0.0 1.6 0.00 0.00 0.00 52 1016.5
20260503031113 18 92 1.6 1.6 0.00 0.00 0.00 51 1016.5
20260503030609 19 66 1.6 3.2 0.00 0.00 0.00 49 1016.5
20260503030106 19 73 1.6 3.2 0.00 0.00 0.00 51 1016.5
20260503025603 19 92 0.0 1.6 0.00 0.00 0.00 51 1016.5
20260503025101 19 101 0.0 3.2 0.00 0.00 0.00 48 1016.2
20260503024557 19 67 1.6 1.6 0.00 0.00 0.00 49 1016.2
20260503024054 20 51 3.2 4.8 0.00 0.00 0.00 48 1016.2
20260503023551 20 77 1.6 1.6 0.00 0.00 0.00 48 1016.2
20260503023048 20 51 1.6 3.2 0.00 0.00 0.00 47 1016.2
20260503022544 20 110 1.6 3.2 0.00 0.00 0.00 46 1016.5
20260503022039 20 97 1.6 1.6 0.00 0.00 0.00 49 1016.2
20260503021536 20 124 0.0 4.8 0.00 0.00 0.00 47 1016.5
20260503021033 20 108 0.0 3.2 0.00 0.00 0.00 47 1016.2
20260503020530 21 53 1.6 3.2 0.00 0.00 0.00 46 1016.2
20260503020027 21 117 0.0 1.6 0.00 0.00 0.00 46 1016.5
20260503015524 22 127 0.0 3.2 0.00 0.00 0.00 44 1016.5
20260503015021 22 194 1.6 1.6 0.00 0.00 0.00 43 1016.5
20260503014516 22 116 1.6 3.2 0.00 0.00 0.00 40 1016.5
20260503014015 22 164 1.6 3.2 0.00 0.00 0.00 41 1016.5
20260503013512 22 336 4.8 12.9 0.00 0.00 0.00 40 1016.5
20260503013009 22 218 0.0 9.7 0.00 0.00 0.00 41 1016.5
20260503012507 22 114 3.2 6.4 0.00 0.00 0.00 40 1016.5
20260503012003 22 90 3.2 4.8 0.00 0.00 0.00 40 1016.9
20260503011500 22 0 3.2 4.8 0.00 0.00 0.00 39 1016.9
20260503010957 23 99 1.6 4.8 0.00 0.00 0.00 38 1016.9
20260503010453 23 58 0.0 3.2 0.00 0.00 0.00 39 1016.9
20260503005950 23 1 3.2 6.4 0.00 0.00 0.00 39 1016.9
20260503005447 22 274 3.2 11.3 0.00 0.00 0.00 40 1016.9
20260503004944 23 134 3.2 11.3 0.00 0.00 0.00 40 1016.9
20260503004441 23 98 3.2 6.4 0.00 0.00 0.00 41 1016.9
20260503003939 22 258 1.6 6.4 0.00 0.00 0.00 41 1016.9
20260503003435 22 13 3.2 11.3 0.00 0.00 0.00 42 1016.9
20260503002932 23 119 3.2 4.8 0.00 0.00 0.00 41 1016.9
20260503002429 23 109 1.6 3.2 0.00 0.00 0.00 41 1016.9
20260503001926 23 288 4.8 6.4 0.00 0.00 0.00 39 1016.9
20260503001422 23 6 4.8 11.3 0.00 0.00 0.00 41 1016.9
20260503000920 23 353 4.8 9.7 0.00 0.00 0.00 41 1016.9
20260503000417 22 307 3.2 6.4 0.00 0.00 0.00 41 1016.9
20260502235914 22 87 1.6 12.9 0.00 0.00 0.00 42 1016.9
20260502235411 22 290 8.0 12.9 0.00 0.00 0.00 43 1017.2